User: anonymous   Login
Location: *
(37.5724°S, 58.0067°E)
Time: 00:56:46
(UTC+00:00)
Language:

Cosmos 1656 Rocket - Orbit

View from above orbital plane
View from above orbital plane
View from above satellite
View from above satellite

Ground track
Ground track

The orbit data is extracted from the following two-line orbital elements,

1 15772U 85042D   20336.37295984  .00000056  00000-0  47339-4 0  9993
2 15772  71.1075 190.2555 0037475 240.8517 292.1804 14.21280800840920
Epoch (UTC): 01 December 2020 08:57:03
Eccentricity: 0.0037475
inclination: 71.1075°
perigee height: 794 km
apogee height: 848 km
right ascension of ascending node: 190.2555°
argument of perigee: 240.8517°
revolutions per day: 14.21280800
mean anomaly at epoch: 292.1804°
orbit number at epoch: 84092

The dashed part of the orbit path shows where the satellite is in the earth's shadow,  

DLR